Location: Madrid
(40.4000°N, 3.6830°W)
Time: 01:25:19
(UTC+02:00)

ISS - Pass Details

Date: 16 July 2019
Orbit: 409 x 418 km, 51.6° (Epoch: 23 July)

Event Time Altitude Azimuth Distance (km) Brightness Sun altitude
Exits shadow 01:30:24 16° 305° (NW) 1,171 -1.0 -27.1°
Maximum altitude 01:31:50 21° 339° (NNW) 1,005 -1.1 -27.1°
Drops below altitude 10° 01:34:25 10° 30° (NNE) 1,483 -0.4 -27.2°
Sets 01:36:52 0° 48° (NE) 2,345 0.4 -27.3°
